TimeMST,TemperatureF,Dew PointF,Humidity,Sea Level PressureIn,VisibilityMPH,Wind Direction,Wind SpeedMPH,Gust SpeedMPH,PrecipitationIn,Events,Conditions,WindDirDegrees,DateUTC
12:15 AM,15.3,10.9,83,30.27,10.0,West,9.2,-,N/A,,Clear,280,2013-01-06 07:15:00
12:35 AM,15.1,11.1,84,30.27,10.0,West,8.1,-,N/A,,Clear,270,2013-01-06 07:35:00
12:55 AM,15.8,10.8,80,30.26,10.0,WSW,8.1,-,N/A,,Clear,250,2013-01-06 07:55:00
1:15 AM,16.2,10.6,79,30.26,10.0,WSW,6.9,-,N/A,,Clear,250,2013-01-06 08:15:00
1:35 AM,14.0,9.9,84,30.26,10.0,WSW,6.9,-,N/A,,Clear,250,2013-01-06 08:35:00
1:55 AM,12.6,9.0,85,30.26,10.0,West,6.9,-,N/A,,Clear,260,2013-01-06 08:55:00
2:15 AM,11.3,8.6,89,30.25,10.0,West,8.1,-,N/A,,Clear,270,2013-01-06 09:15:00
2:35 AM,11.3,8.6,89,30.24,10.0,West,8.1,-,N/A,,Clear,270,2013-01-06 09:35:00
2:55 AM,10.4,7.7,89,30.24,10.0,West,8.1,-,N/A,,Clear,260,2013-01-06 09:55:00
3:15 AM,10.0,7.0,87,30.24,10.0,West,8.1,-,N/A,,Clear,260,2013-01-06 10:15:00
3:35 AM,7.7,5.4,90,30.24,10.0,West,8.1,-,N/A,,Clear,260,2013-01-06 10:35:00
3:55 AM,8.6,6.4,91,30.23,10.0,West,10.4,-,N/A,,Clear,270,2013-01-06 10:55:00
4:15 AM,8.6,5.9,89,30.23,10.0,West,6.9,-,N/A,,Clear,260,2013-01-06 11:15:00
4:35 AM,7.0,3.9,87,30.22,10.0,West,5.8,-,N/A,,Clear,260,2013-01-06 11:35:00
4:55 AM,6.6,3.7,88,30.22,10.0,West,6.9,-,N/A,,Clear,270,2013-01-06 11:55:00
5:15 AM,6.3,3.6,89,30.20,10.0,West,8.1,-,N/A,,Clear,270,2013-01-06 12:15:00
5:35 AM,6.4,3.4,87,30.20,10.0,Calm,Calm,-,N/A,,Clear,0,2013-01-06 12:35:00
5:55 AM,6.4,3.9,89,30.20,10.0,West,8.1,-,N/A,,Clear,260,2013-01-06 12:55:00
6:15 AM,5.9,2.8,87,30.21,10.0,West,6.9,-,N/A,,Clear,260,2013-01-06 13:15:00
6:35 AM,5.0,2.1,88,30.21,10.0,West,8.1,-,N/A,,Clear,260,2013-01-06 13:35:00
6:55 AM,5.5,2.8,89,30.20,10.0,West,10.4,-,N/A,,Clear,260,2013-01-06 13:55:00
7:15 AM,5.2,2.3,88,30.20,10.0,West,9.2,-,N/A,,Clear,270,2013-01-06 14:15:00
7:35 AM,5.9,2.8,87,30.20,10.0,West,8.1,-,N/A,,Clear,260,2013-01-06 14:35:00
7:55 AM,8.1,4.6,86,30.20,10.0,West,6.9,-,N/A,,Clear,260,2013-01-06 14:55:00
8:15 AM,10.2,6.8,86,30.20,10.0,West,10.4,-,N/A,,Clear,260,2013-01-06 15:15:00
8:35 AM,11.8,8.4,86,30.20,10.0,West,8.1,-,N/A,,Clear,260,2013-01-06 15:35:00
8:55 AM,14.9,11.5,86,30.19,10.0,West,6.9,-,N/A,,Clear,260,2013-01-06 15:55:00
9:15 AM,17.2,12.9,83,30.19,10.0,West,8.1,-,N/A,,Clear,260,2013-01-06 16:15:00
9:35 AM,19.2,14.0,80,30.19,10.0,West,11.5,-,N/A,,Clear,270,2013-01-06 16:35:00
9:55 AM,21.2,15.3,78,30.18,10.0,West,10.4,-,N/A,,Clear,260,2013-01-06 16:55:00
10:15 AM,24.1,15.4,70,30.17,10.0,West,8.1,-,N/A,,Clear,260,2013-01-06 17:15:00
10:35 AM,26.6,16.0,64,30.16,10.0,West,6.9,-,N/A,,Clear,260,2013-01-06 17:35:00
10:55 AM,28.0,14.2,56,30.14,10.0,West,8.1,-,N/A,,Clear,260,2013-01-06 17:55:00
11:15 AM,31.3,13.5,48,30.12,10.0,WSW,5.8,-,N/A,,Clear,250,2013-01-06 18:15:00
11:35 AM,32.5,12.0,43,30.10,10.0,SW,4.6,-,N/A,,Clear,230,2013-01-06 18:35:00
11:55 AM,34.0,13.1,42,30.09,10.0,SW,4.6,-,N/A,,Clear,230,2013-01-06 18:55:00
12:15 PM,35.2,14.2,42,30.07,10.0,WSW,3.5,-,N/A,,Clear,240,2013-01-06 19:15:00
12:35 PM,36.7,12.2,37,30.05,10.0,Calm,Calm,-,N/A,,Clear,0,2013-01-06 19:35:00
12:55 PM,38.7,12.0,34,30.04,10.0,West,5.8,-,N/A,,Clear,260,2013-01-06 19:55:00
1:15 PM,39.7,12.2,32,30.03,10.0,WSW,4.6,-,N/A,,Clear,240,2013-01-06 20:15:00
1:35 PM,40.6,13.3,33,30.01,10.0,SW,3.5,-,N/A,,Clear,220,2013-01-06 20:35:00
1:55 PM,41.4,15.1,35,30.00,10.0,Calm,Calm,-,N/A,,Clear,0,2013-01-06 20:55:00
2:15 PM,41.5,15.6,35,30.00,10.0,SW,3.5,-,N/A,,Clear,220,2013-01-06 21:15:00
2:35 PM,41.9,16.2,35,29.99,10.0,Calm,Calm,-,N/A,,Clear,0,2013-01-06 21:35:00
2:55 PM,41.4,17.4,38,29.98,10.0,Calm,Calm,-,N/A,,Clear,0,2013-01-06 21:55:00
3:15 PM,41.0,18.3,40,29.98,10.0,Calm,Calm,-,N/A,,Clear,0,2013-01-06 22:15:00
3:35 PM,41.0,18.5,40,29.97,10.0,Calm,Calm,-,N/A,,Clear,0,2013-01-06 22:35:00
3:55 PM,39.6,19.4,44,29.96,10.0,Calm,Calm,-,N/A,,Clear,0,2013-01-06 22:55:00
4:15 PM,37.4,19.4,48,29.96,10.0,North,3.5,-,N/A,,Clear,10,2013-01-06 23:15:00
4:35 PM,33.1,18.9,56,29.96,10.0,North,6.9,-,N/A,,Clear,360,2013-01-06 23:35:00
4:55 PM,30.2,18.5,62,29.95,10.0,NNW,5.8,-,N/A,,Clear,340,2013-01-06 23:55:00
5:15 PM,29.3,17.6,62,29.95,10.0,NNW,8.1,-,N/A,,Clear,330,2013-01-07 00:15:00
5:35 PM,28.4,17.4,63,29.94,10.0,NNW,9.2,-,N/A,,Clear,330,2013-01-07 00:35:00
5:55 PM,29.5,16.9,59,29.94,10.0,NNW,8.1,-,N/A,,Clear,330,2013-01-07 00:55:00
6:15 PM,28.8,15.8,58,29.94,10.0,NNW,8.1,-,N/A,,Clear,340,2013-01-07 01:15:00
6:35 PM,27.3,15.4,61,29.94,10.0,North,5.8,-,N/A,,Clear,350,2013-01-07 01:35:00
6:55 PM,28.9,14.9,56,29.94,10.0,WNW,5.8,-,N/A,,Clear,300,2013-01-07 01:55:00
7:15 PM,28.2,14.2,56,29.94,10.0,West,8.1,-,N/A,,Clear,280,2013-01-07 02:15:00
7:35 PM,27.1,14.0,58,29.94,10.0,West,6.9,-,N/A,,Clear,280,2013-01-07 02:35:00
8:15 PM,25.9,12.9,58,29.93,10.0,West,6.9,-,N/A,,Clear,280,2013-01-07 03:15:00
8:55 PM,21.9,12.7,68,29.94,10.0,WNW,9.2,-,N/A,,Clear,300,2013-01-07 03:55:00
9:35 PM,21.4,12.4,68,29.93,10.0,West,8.1,-,N/A,,Clear,280,2013-01-07 04:35:00
9:55 PM,21.2,11.7,67,29.93,10.0,West,9.2,-,N/A,,Clear,270,2013-01-07 04:55:00
10:35 PM,19.8,12.9,75,29.93,10.0,West,5.8,-,N/A,,Clear,260,2013-01-07 05:35:00
10:55 PM,18.5,12.9,79,29.92,10.0,West,6.9,-,N/A,,Clear,270,2013-01-07 05:55:00
11:15 PM,19.2,13.1,77,29.92,10.0,WSW,6.9,-,N/A,,Clear,250,2013-01-07 06:15:00
11:35 PM,19.6,14.5,81,29.92,10.0,West,8.1,-,N/A,,Clear,260,2013-01-07 06:35:00
11:55 PM,21.2,14.9,77,29.92,10.0,West,10.4,-,N/A,,Clear,270,2013-01-07 06:55:00